LGX43B LIRA-LIMJ

Flight info

Callsign LGX43B
Flight time 1h 7m
Altitude 22000
Route GILIO DCT ELB DCT SPEZI M729 IDONA
Aircraft BE9L/L-SDFGRWY/S

Departure

Time 2026-04-23 16:15
Airport Ciampino–G. B. Pastine International Airport (LIRA)

Arrival

Time 2026-04-23 17:23
Airport Genoa Cristoforo Colombo Airport (LIMJ)
Time Latitude Longitude Altitude Speed Heading
2026-04-23 16:12 41.80687 12.58516 425 ft 0 kts 152°
2026-04-23 16:12 41.80680 12.58521 425 ft 4 kts 152°
2026-04-23 16:13 41.80641 12.58550 425 ft 11 kts 152°
2026-04-23 16:13 41.80694 12.58666 425 ft 25 kts 44°
2026-04-23 16:13 41.80754 12.58813 425 ft 18 kts 65°
2026-04-23 16:14 41.80741 12.58927 425 ft 18 kts 152°
2026-04-23 16:14 41.80724 12.58938 425 ft 0 kts 155°
2026-04-23 16:14 41.80602 12.59017 425 ft 58 kts 153°
2026-04-23 16:15 41.80011 12.59428 425 ft 125 kts 153°
2026-04-23 16:15 41.79207 12.60054 804 ft 139 kts 151°
2026-04-23 16:15 41.78180 12.60256 1068 ft 160 kts 195°
2026-04-23 16:15 41.77298 12.59490 1592 ft 156 kts 237°
2026-04-23 16:16 41.77006 12.58138 2091 ft 152 kts 279°
2026-04-23 16:16 41.77305 12.56809 2603 ft 152 kts 287°
2026-04-23 16:16 41.77502 12.55399 3066 ft 157 kts 283°
2026-04-23 16:16 41.77691 12.53957 3542 ft 160 kts 283°
2026-04-23 16:17 41.77827 12.52916 3901 ft 161 kts 284°
2026-04-23 16:17 41.77968 12.51836 4246 ft 163 kts 284°
2026-04-23 16:17 41.78162 12.50354 4706 ft 165 kts 283°
2026-04-23 16:17 41.78445 12.48999 5131 ft 164 kts 298°
2026-04-23 16:18 41.79022 12.47655 5635 ft 162 kts 309°
2026-04-23 16:18 41.79693 12.46445 6088 ft 162 kts 313°
2026-04-23 16:18 41.80346 12.45213 6512 ft 168 kts 297°
2026-04-23 16:18 41.80542 12.43630 6992 ft 174 kts 277°
2026-04-23 16:19 41.80564 12.42012 7483 ft 176 kts 275°
2026-04-23 16:19 41.80560 12.40367 7923 ft 179 kts 275°
2026-04-23 16:19 41.80546 12.38683 8375 ft 181 kts 274°
2026-04-23 16:19 41.80528 12.36982 8820 ft 184 kts 275°
2026-04-23 16:20 41.80510 12.35276 9301 ft 186 kts 275°
2026-04-23 16:20 41.80490 12.33557 9774 ft 188 kts 274°
2026-04-23 16:20 41.80471 12.31792 10239 ft 189 kts 274°
2026-04-23 16:20 41.80450 12.30030 10708 ft 190 kts 275°
2026-04-23 16:21 41.80430 12.28280 11166 ft 190 kts 275°
2026-04-23 16:21 41.80409 12.26510 11620 ft 190 kts 275°
2026-04-23 16:21 41.80387 12.24756 12059 ft 190 kts 275°
2026-04-23 16:21 41.80504 12.23016 12489 ft 185 kts 287°
2026-04-23 16:22 41.80747 12.21335 12918 ft 184 kts 289°
2026-04-23 16:22 41.80998 12.19664 13325 ft 185 kts 289°
2026-04-23 16:22 41.81253 12.17977 13763 ft 186 kts 289°
2026-04-23 16:22 41.81507 12.16304 14244 ft 185 kts 289°
2026-04-23 16:23 41.81765 12.14598 14709 ft 186 kts 289°
2026-04-23 16:23 41.81936 12.13472 15014 ft 186 kts 289°
2026-04-23 16:23 41.82194 12.11766 15468 ft 186 kts 289°
2026-04-23 16:23 41.82454 12.10040 15914 ft 187 kts 289°
2026-04-23 16:24 41.82707 12.08367 16336 ft 187 kts 289°
2026-04-23 16:24 41.82966 12.06652 16762 ft 188 kts 289°
2026-04-23 16:24 41.83225 12.04932 17234 ft 188 kts 289°
2026-04-23 16:24 41.83482 12.03218 17711 ft 188 kts 289°
2026-04-23 16:25 41.83738 12.01513 18147 ft 189 kts 289°
2026-04-23 16:25 41.83949 12.00107 18515 ft 189 kts 289°
2026-04-23 16:25 41.84209 11.98374 18946 ft 190 kts 289°
2026-04-23 16:25 41.84469 11.96638 19419 ft 189 kts 289°
2026-04-23 16:26 41.84724 11.94932 19876 ft 189 kts 289°
2026-04-23 16:26 41.84983 11.93202 20303 ft 190 kts 289°
2026-04-23 16:26 41.85243 11.91450 20743 ft 190 kts 289°
2026-04-23 16:26 41.85502 11.89712 21157 ft 191 kts 289°
2026-04-23 16:27 41.85758 11.87991 21564 ft 191 kts 289°
2026-04-23 16:27 41.86018 11.86240 21961 ft 192 kts 289°
2026-04-23 16:27 41.86291 11.84428 22133 ft 206 kts 288°
2026-04-23 16:27 41.86587 11.82458 22147 ft 224 kts 288°
2026-04-23 16:28 41.86898 11.80368 22141 ft 238 kts 287°
2026-04-23 16:28 41.87155 11.78630 22136 ft 246 kts 287°
2026-04-23 16:28 41.87339 11.77383 22132 ft 251 kts 287°
2026-04-23 16:28 41.87683 11.75051 22098 ft 259 kts 287°
2026-04-23 16:29 41.88034 11.72666 22101 ft 262 kts 287°
2026-04-23 16:29 41.88387 11.70267 22088 ft 266 kts 287°
2026-04-23 16:29 41.88749 11.67809 22088 ft 268 kts 287°
2026-04-23 16:29 41.89106 11.65374 22078 ft 269 kts 287°
2026-04-23 16:30 41.89471 11.62883 22087 ft 270 kts 287°
2026-04-23 16:30 41.89900 11.60452 22043 ft 267 kts 298°
2026-04-23 16:30 41.90686 11.58743 22103 ft 257 kts 313°
2026-04-23 16:30 41.91701 11.57075 22074 ft 257 kts 317°
2026-04-23 16:31 41.92905 11.55261 22075 ft 256 kts 319°
2026-04-23 16:31 41.94108 11.53509 22073 ft 256 kts 319°
2026-04-23 16:31 41.95341 11.51741 22076 ft 256 kts 320°
2026-04-23 16:31 41.96558 11.50007 22074 ft 256 kts 320°
2026-04-23 16:32 41.97789 11.48258 22075 ft 256 kts 320°
2026-04-23 16:32 41.99000 11.46539 22074 ft 256 kts 320°
2026-04-23 16:32 42.00227 11.44796 22074 ft 256 kts 320°
2026-04-23 16:32 42.01456 11.43051 22074 ft 256 kts 320°
2026-04-23 16:33 42.02681 11.41311 22074 ft 256 kts 320°
2026-04-23 16:33 42.03895 11.39584 22074 ft 256 kts 320°
2026-04-23 16:33 42.05109 11.37857 22074 ft 256 kts 320°
2026-04-23 16:33 42.06345 11.36099 22102 ft 255 kts 320°
2026-04-23 16:34 42.07552 11.34379 22128 ft 254 kts 319°
2026-04-23 16:34 42.08764 11.32653 22124 ft 255 kts 319°
2026-04-23 16:34 42.09989 11.30907 22125 ft 255 kts 319°
2026-04-23 16:34 42.11200 11.29181 22132 ft 255 kts 319°
2026-04-23 16:35 42.12422 11.27436 22130 ft 256 kts 319°
2026-04-23 16:35 42.13650 11.25681 22131 ft 256 kts 319°
2026-04-23 16:35 42.14875 11.23931 22131 ft 256 kts 319°
2026-04-23 16:35 42.16088 11.22197 22130 ft 256 kts 319°
2026-04-23 16:36 42.17311 11.20447 22130 ft 256 kts 319°
2026-04-23 16:36 42.18534 11.18695 22130 ft 257 kts 319°
2026-04-23 16:36 42.19765 11.16932 22130 ft 257 kts 319°
2026-04-23 16:36 42.20976 11.15196 22130 ft 257 kts 319°
2026-04-23 16:37 42.22207 11.13431 22130 ft 257 kts 319°
2026-04-23 16:37 42.23428 11.11678 22130 ft 257 kts 319°
2026-04-23 16:37 42.24637 11.09942 22130 ft 257 kts 319°
2026-04-23 16:37 42.25858 11.08186 22126 ft 257 kts 319°
2026-04-23 16:38 42.27078 11.06433 22128 ft 258 kts 319°
2026-04-23 16:38 42.28306 11.04666 22133 ft 259 kts 319°
2026-04-23 16:38 42.29554 11.02870 22133 ft 261 kts 319°
2026-04-23 16:38 42.30798 11.01078 22132 ft 262 kts 319°
2026-04-23 16:39 42.32034 10.99296 22131 ft 262 kts 319°
2026-04-23 16:39 42.33277 10.97504 22131 ft 263 kts 319°
2026-04-23 16:39 42.34537 10.95686 22130 ft 263 kts 319°
2026-04-23 16:39 42.35775 10.93898 22130 ft 263 kts 319°
2026-04-23 16:40 42.37020 10.92101 22139 ft 263 kts 319°
2026-04-23 16:40 42.38279 10.90284 22129 ft 264 kts 319°
2026-04-23 16:40 42.39526 10.88481 22131 ft 264 kts 319°
2026-04-23 16:40 42.40774 10.86677 22129 ft 264 kts 319°
2026-04-23 16:41 42.42032 10.84856 22130 ft 264 kts 319°
2026-04-23 16:41 42.43280 10.83049 22130 ft 264 kts 319°
2026-04-23 16:41 42.44535 10.81231 22130 ft 264 kts 319°
2026-04-23 16:41 42.45772 10.79437 22130 ft 264 kts 319°
2026-04-23 16:42 42.47026 10.77617 22130 ft 264 kts 319°
2026-04-23 16:42 42.48281 10.75795 22130 ft 264 kts 319°
2026-04-23 16:42 42.49522 10.73993 22134 ft 263 kts 319°
2026-04-23 16:42 42.50763 10.72189 22147 ft 262 kts 319°
2026-04-23 16:43 42.52005 10.70383 22125 ft 262 kts 319°
2026-04-23 16:43 42.53244 10.68578 22130 ft 261 kts 319°
2026-04-23 16:43 42.54483 10.66774 22128 ft 261 kts 319°
2026-04-23 16:43 42.55716 10.64978 22129 ft 261 kts 319°
2026-04-23 16:44 42.56947 10.63183 22129 ft 261 kts 319°
2026-04-23 16:44 42.58179 10.61385 22130 ft 261 kts 319°
2026-04-23 16:44 42.59420 10.59574 22130 ft 260 kts 319°
2026-04-23 16:44 42.60647 10.57781 22129 ft 260 kts 319°
2026-04-23 16:45 42.61878 10.55982 22130 ft 260 kts 319°
2026-04-23 16:45 42.63104 10.54188 22131 ft 260 kts 319°
2026-04-23 16:45 42.64328 10.52396 22129 ft 260 kts 319°
2026-04-23 16:45 42.65561 10.50591 22130 ft 260 kts 319°
2026-04-23 16:46 42.66797 10.48780 22130 ft 260 kts 319°
2026-04-23 16:46 42.68011 10.47000 22130 ft 260 kts 319°
2026-04-23 16:46 42.69253 10.45178 22130 ft 260 kts 319°
2026-04-23 16:46 42.70467 10.43395 22130 ft 260 kts 319°
2026-04-23 16:47 42.71708 10.41573 22130 ft 260 kts 319°
2026-04-23 16:47 42.72966 10.39859 22106 ft 257 kts 328°
2026-04-23 16:47 42.74479 10.38572 22157 ft 252 kts 335°
2026-04-23 16:47 42.75988 10.37404 22119 ft 254 kts 336°
2026-04-23 16:48 42.77539 10.36223 22133 ft 253 kts 336°
2026-04-23 16:48 42.79073 10.35061 22130 ft 254 kts 336°
2026-04-23 16:48 42.80607 10.33903 22126 ft 254 kts 336°
2026-04-23 16:48 42.82156 10.32734 22127 ft 254 kts 336°
2026-04-23 16:49 42.83188 10.31956 22127 ft 254 kts 336°
2026-04-23 16:49 42.85256 10.30396 22127 ft 254 kts 336°
2026-04-23 16:49 42.86787 10.29240 22126 ft 254 kts 336°
2026-04-23 16:49 42.88342 10.28065 22126 ft 254 kts 336°
2026-04-23 16:50 42.89888 10.26897 22126 ft 254 kts 336°
2026-04-23 16:50 42.91426 10.25734 22126 ft 254 kts 336°
2026-04-23 16:50 42.92455 10.24955 22126 ft 254 kts 336°
2026-04-23 16:50 42.93998 10.23788 22124 ft 255 kts 335°
2026-04-23 16:51 42.96060 10.22226 22135 ft 255 kts 335°
2026-04-23 16:51 42.97097 10.21440 22154 ft 254 kts 335°
2026-04-23 16:51 42.99161 10.19875 22153 ft 255 kts 335°
2026-04-23 16:51 43.00693 10.18713 22154 ft 255 kts 335°
2026-04-23 16:52 43.02251 10.17530 22154 ft 255 kts 335°
2026-04-23 16:52 43.03796 10.16356 22154 ft 255 kts 335°
2026-04-23 16:52 43.05353 10.15173 22153 ft 255 kts 335°
2026-04-23 16:52 43.06888 10.14005 22153 ft 255 kts 335°
2026-04-23 16:53 43.08460 10.12809 22153 ft 255 kts 335°
2026-04-23 16:53 43.10005 10.11632 22153 ft 255 kts 335°
2026-04-23 16:53 43.11546 10.10458 22158 ft 256 kts 335°
2026-04-23 16:53 43.13106 10.09268 22157 ft 256 kts 335°
2026-04-23 16:54 43.14679 10.08069 22158 ft 256 kts 335°
2026-04-23 16:54 43.16230 10.06885 22157 ft 256 kts 335°
2026-04-23 16:54 43.17776 10.05705 22157 ft 256 kts 335°
2026-04-23 16:54 43.18816 10.04910 22157 ft 256 kts 335°
2026-04-23 16:55 43.20358 10.03731 22157 ft 256 kts 335°
2026-04-23 16:55 43.21915 10.02540 22157 ft 256 kts 335°
2026-04-23 16:55 43.23989 10.00952 22157 ft 256 kts 335°
2026-04-23 16:55 43.25553 9.99755 22157 ft 256 kts 336°
2026-04-23 16:56 43.27116 9.98557 22158 ft 256 kts 336°
2026-04-23 16:56 43.28671 9.97364 22157 ft 256 kts 336°
2026-04-23 16:56 43.29709 9.96568 22157 ft 256 kts 336°
2026-04-23 16:56 43.31782 9.94976 22157 ft 256 kts 336°
2026-04-23 16:57 43.33329 9.93788 22157 ft 256 kts 336°
2026-04-23 16:57 43.34891 9.92587 22157 ft 256 kts 336°
2026-04-23 16:57 43.36431 9.91403 22157 ft 256 kts 336°
2026-04-23 16:57 43.37481 9.90595 22157 ft 256 kts 336°
2026-04-23 16:58 43.39025 9.89406 22157 ft 256 kts 336°
2026-04-23 16:58 43.40588 9.88203 22157 ft 256 kts 336°
2026-04-23 16:58 43.42653 9.86610 22157 ft 256 kts 336°
2026-04-23 16:58 43.44221 9.85401 22157 ft 256 kts 336°
2026-04-23 16:59 43.45759 9.84214 22157 ft 256 kts 336°
2026-04-23 16:59 43.47315 9.83013 22157 ft 256 kts 336°
2026-04-23 16:59 43.48872 9.81809 22157 ft 256 kts 336°
2026-04-23 16:59 43.50408 9.80621 22157 ft 256 kts 336°
2026-04-23 17:00 43.51960 9.79421 22157 ft 256 kts 336°
2026-04-23 17:00 43.53521 9.78212 22157 ft 256 kts 336°
2026-04-23 17:00 43.55085 9.77001 22157 ft 256 kts 336°
2026-04-23 17:00 43.56633 9.75801 22157 ft 256 kts 336°
2026-04-23 17:01 43.58174 9.74605 22157 ft 256 kts 335°
2026-04-23 17:01 43.59731 9.73397 22156 ft 256 kts 335°
2026-04-23 17:01 43.61287 9.72189 22156 ft 256 kts 335°
2026-04-23 17:01 43.62834 9.70987 22156 ft 255 kts 335°
2026-04-23 17:02 43.63847 9.70198 22126 ft 247 kts 335°
2026-04-23 17:02 43.65836 9.68652 21674 ft 251 kts 335°
2026-04-23 17:02 43.67356 9.67470 21363 ft 252 kts 335°
2026-04-23 17:02 43.68881 9.66283 21008 ft 254 kts 335°
2026-04-23 17:03 43.70422 9.65083 20635 ft 256 kts 335°
2026-04-23 17:03 43.71965 9.63880 20240 ft 255 kts 335°
2026-04-23 17:03 43.73504 9.62679 19843 ft 254 kts 335°
2026-04-23 17:03 43.75020 9.61495 19437 ft 250 kts 335°
2026-04-23 17:04 43.76517 9.60327 19034 ft 247 kts 334°
2026-04-23 17:04 43.77995 9.59172 18631 ft 244 kts 334°
2026-04-23 17:04 43.79470 9.58018 18243 ft 241 kts 334°
2026-04-23 17:04 43.80910 9.56891 17892 ft 238 kts 334°
2026-04-23 17:05 43.82336 9.55775 17539 ft 236 kts 334°
2026-04-23 17:05 43.83757 9.54662 17188 ft 235 kts 334°
2026-04-23 17:05 43.85194 9.53537 16832 ft 234 kts 335°
2026-04-23 17:05 43.86592 9.52441 16485 ft 233 kts 335°
2026-04-23 17:06 43.87996 9.51340 16136 ft 233 kts 335°
2026-04-23 17:06 43.89410 9.50230 15783 ft 232 kts 335°
2026-04-23 17:06 43.90800 9.49139 15436 ft 232 kts 335°
2026-04-23 17:06 43.92199 9.48039 15045 ft 231 kts 335°
2026-04-23 17:07 43.93585 9.46951 14648 ft 230 kts 335°
2026-04-23 17:07 43.94971 9.45861 14252 ft 230 kts 335°
2026-04-23 17:07 43.96347 9.44778 13843 ft 226 kts 335°
2026-04-23 17:07 43.97693 9.43717 13425 ft 222 kts 336°
2026-04-23 17:08 43.98871 9.42304 12943 ft 233 kts 306°
2026-04-23 17:08 43.99467 9.40232 12608 ft 232 kts 294°
2026-04-23 17:08 43.99985 9.38096 12191 ft 231 kts 296°
2026-04-23 17:08 44.00897 9.36366 11764 ft 220 kts 324°
2026-04-23 17:09 44.02033 9.34989 11394 ft 218 kts 325°
2026-04-23 17:09 44.03177 9.33630 10981 ft 215 kts 328°
2026-04-23 17:09 44.04352 9.32386 10580 ft 214 kts 329°
2026-04-23 17:09 44.05533 9.31145 10174 ft 213 kts 329°
2026-04-23 17:10 44.06716 9.29900 9768 ft 213 kts 329°
2026-04-23 17:10 44.07989 9.29071 9302 ft 202 kts
2026-04-23 17:10 44.09300 9.29518 8958 ft 190 kts 27°
2026-04-23 17:10 44.10366 9.30564 8540 ft 190 kts 44°
2026-04-23 17:11 44.11247 9.31919 8155 ft 190 kts 49°
2026-04-23 17:11 44.12083 9.33380 7752 ft 191 kts 51°
2026-04-23 17:11 44.12889 9.34838 7359 ft 192 kts 51°
2026-04-23 17:11 44.13697 9.36298 6968 ft 192 kts 48°
2026-04-23 17:12 44.14410 9.37022 6642 ft 193 kts 20°
2026-04-23 17:12 44.16156 9.36892 6152 ft 194 kts 342°
2026-04-23 17:12 44.17341 9.36018 5970 ft 185 kts 329°
2026-04-23 17:12 44.18361 9.35029 5764 ft 182 kts 327°
2026-04-23 17:13 44.19383 9.33978 5464 ft 182 kts 325°
2026-04-23 17:13 44.20399 9.32914 5167 ft 183 kts 325°
2026-04-23 17:13 44.21399 9.31861 4880 ft 183 kts 324°
2026-04-23 17:13 44.22413 9.30792 4585 ft 183 kts 324°
2026-04-23 17:14 44.23405 9.29742 4460 ft 171 kts 324°
2026-04-23 17:14 44.24338 9.28755 4494 ft 170 kts 324°
2026-04-23 17:14 44.25295 9.27743 4499 ft 174 kts 324°
2026-04-23 17:14 44.26276 9.26706 4494 ft 178 kts 323°
2026-04-23 17:15 44.27266 9.25657 4504 ft 180 kts 323°
2026-04-23 17:15 44.28274 9.24590 4502 ft 181 kts 323°
2026-04-23 17:15 44.29276 9.23531 4500 ft 182 kts 323°
2026-04-23 17:15 44.30293 9.22457 4493 ft 182 kts 323°
2026-04-23 17:16 44.31420 9.21753 4449 ft 184 kts 357°
2026-04-23 17:16 44.32669 9.21777 4502 ft 181 kts 346°
2026-04-23 17:16 44.33659 9.20733 4490 ft 181 kts 300°
2026-04-23 17:16 44.33940 9.19022 4526 ft 182 kts 277°
2026-04-23 17:17 44.34117 9.17272 4490 ft 184 kts 282°
2026-04-23 17:17 44.34375 9.15532 4479 ft 175 kts 283°
2026-04-23 17:17 44.34536 9.14459 4430 ft 167 kts 283°
2026-04-23 17:17 44.34968 9.12404 4118 ft 162 kts 289°
2026-04-23 17:18 44.35632 9.09468 3680 ft 160 kts 288°
2026-04-23 17:18 44.35970 9.07960 3491 ft 165 kts 288°
2026-04-23 17:18 44.36316 9.06408 3284 ft 169 kts 288°
2026-04-23 17:19 44.36667 9.04837 3056 ft 168 kts 288°
2026-04-23 17:19 44.37004 9.03324 2786 ft 161 kts 287°
2026-04-23 17:19 44.37333 9.01846 2530 ft 155 kts 287°
2026-04-23 17:19 44.37646 9.00435 2294 ft 150 kts 287°
2026-04-23 17:20 44.37949 8.99073 2072 ft 145 kts 287°
2026-04-23 17:20 44.38533 8.96440 1707 ft 136 kts 287°
2026-04-23 17:21 44.39118 8.93807 1357 ft 148 kts 286°
2026-04-23 17:21 44.39426 8.92416 1131 ft 151 kts 286°
2026-04-23 17:21 44.39967 8.89975 712 ft 110 kts 285°
2026-04-23 17:22 44.40195 8.88935 559 ft 112 kts 285°
2026-04-23 17:22 44.40632 8.86952 245 ft 104 kts 284°
2026-04-23 17:23 44.41039 8.85031 16 ft 93 kts 285°
2026-04-23 17:23 44.41147 8.84445 14 ft 33 kts 286°
2026-04-23 17:23 44.41266 8.84318 14 ft 6 kts 51°
2026-04-23 17:24 44.41349 8.84468 14 ft 12 kts 56°
2026-04-23 17:24 44.41390 8.84471 14 ft 2 kts 322°
2026-04-23 17:24 44.41434 8.84423 14 ft 0 kts 326°